{"data":{"norad_id":64374,"epoch":"2026-09-20T07:09:39.935232Z","epoch_age_seconds":151636,"freshness":"FRESH","line1":"1 64374U 25127E   26263.29837888  .00144103  00000+0  11016-2 0  9996","line2":"2 64374  43.0000 351.1088 0005514 284.4345  75.5911 15.70946019 74117","mean_motion":15.70946019,"eccentricity":0.0005514,"inclination_deg":43,"raan_deg":351.1088,"arg_perigee_deg":284.4345,"mean_anomaly_deg":75.5911,"bstar":0.0011016,"rev_number":7411,"period_min":91.664511866337,"perigee_km":352.47874742497,"apogee_km":359.90536550844,"semimajor_km":6734.3290564667,"source":"CELESTRAK","updated_at":"2026-09-21T09:00:35.322357Z"}}